Time,TemperatureF,DewpointF,PressureIn,WindDirection,WindDirectionDegrees,WindSpeedMPH,WindSpeedGustMPH,Humidity,HourlyPrecipIn,Conditions,Clouds,dailyrainin,SoftwareType,DateUTC
2013-01-09 01:43:00,27.0,-99.9,30.18,SW,225,5.0,7.0,0,-99.99,,,0.00,,2013-01-09 06:43:00,
2013-01-09 01:53:00,27.0,-99.9,30.18,SW,225,5.0,7.0,0,-99.99,,,0.00,,2013-01-09 06:53:00,
2013-01-09 02:02:00,27.0,-99.9,30.18,SW,225,5.0,7.0,0,-99.99,,,0.00,,2013-01-09 07:02:00,
2013-01-09 02:32:00,26.0,-99.9,30.20,West,270,4.0,7.0,0,-99.99,,,0.00,,2013-01-09 07:32:00,
2013-01-09 02:43:00,26.0,-99.9,30.20,West,270,4.0,7.0,0,-99.99,,,0.00,,2013-01-09 07:43:00,
2013-01-09 02:53:00,26.0,-99.9,30.20,West,270,4.0,7.0,0,-99.99,,,0.00,,2013-01-09 07:53:00,
2013-01-09 03:02:00,26.0,-99.9,30.20,West,270,4.0,7.0,0,-99.99,,,0.00,,2013-01-09 08:02:00,
2013-01-09 03:03:00,25.0,-99.9,30.21,WSW,247,5.0,7.0,0,-99.99,,,0.00,,2013-01-09 08:03:00,
2013-01-09 03:43:00,25.0,-99.9,30.21,WSW,247,5.0,7.0,0,-99.99,,,0.00,,2013-01-09 08:43:00,
2013-01-09 03:53:00,25.0,-99.9,30.21,WSW,247,5.0,7.0,0,-99.99,,,0.00,,2013-01-09 08:53:00,
2013-01-09 04:42:00,22.0,-99.9,30.21,NW,315,3.0,8.0,0,-99.99,,,0.00,,2013-01-09 09:42:00,
2013-01-09 04:53:00,22.0,-99.9,30.21,NW,315,3.0,8.0,0,-99.99,,,0.00,,2013-01-09 09:53:00,
2013-01-09 05:02:00,22.0,-99.9,30.21,NW,315,3.0,8.0,0,-99.99,,,0.00,,2013-01-09 10:02:00,
2013-01-09 05:42:00,21.0,-99.9,30.21,East,90,4.0,7.0,0,-99.99,,,0.00,,2013-01-09 10:42:00,
2013-01-09 05:53:00,21.0,-99.9,30.21,East,90,4.0,7.0,0,-99.99,,,0.00,,2013-01-09 10:53:00,
2013-01-09 06:02:00,21.0,-99.9,30.21,East,90,4.0,7.0,0,-99.99,,,0.00,,2013-01-09 11:02:00,
2013-01-09 06:03:00,20.0,-99.9,30.21,SW,225,2.0,7.0,0,-99.99,,,0.00,,2013-01-09 11:03:00,
2013-01-09 06:43:00,20.0,-99.9,30.21,SW,225,2.0,7.0,0,-99.99,,,0.00,,2013-01-09 11:43:00,
2013-01-09 06:53:00,20.0,-99.9,30.21,SW,225,2.0,7.0,0,-99.99,,,0.00,,2013-01-09 11:53:00,
2013-01-09 07:03:00,19.0,-99.9,30.23,South,180,0.0,6.0,0,-99.99,,,0.00,,2013-01-09 12:03:00,
2013-01-09 07:43:00,19.0,-99.9,30.23,South,180,0.0,6.0,0,-99.99,,,0.00,,2013-01-09 12:43:00,
2013-01-09 07:53:00,19.0,-99.9,30.23,South,180,0.0,6.0,0,-99.99,,,0.00,,2013-01-09 12:53:00,
2013-01-09 08:03:00,17.0,-99.9,30.26,SW,225,3.0,7.0,0,-99.99,,,0.00,,2013-01-09 13:03:00,
2013-01-09 08:33:00,17.0,-99.9,30.26,SW,225,3.0,7.0,0,-99.99,,,0.00,,2013-01-09 13:33:00,
2013-01-09 08:43:00,17.0,-99.9,30.26,SW,225,3.0,7.0,0,-99.99,,,0.00,,2013-01-09 13:43:00,
2013-01-09 08:53:00,17.0,-99.9,30.26,SW,225,3.0,7.0,0,-99.99,,,0.00,,2013-01-09 13:53:00,
2013-01-09 09:03:00,21.0,-99.9,30.21,NE,45,2.0,6.0,0,-99.99,,,0.00,,2013-01-09 14:03:00,
2013-01-09 09:43:00,21.0,-99.9,30.21,NE,45,2.0,6.0,0,-99.99,,,0.00,,2013-01-09 14:43:00,
2013-01-09 09:53:00,21.0,-99.9,30.21,NE,45,2.0,6.0,0,-99.99,,,0.00,,2013-01-09 14:53:00,
2013-01-09 10:03:00,25.0,-99.9,30.19,ENE,67,2.0,8.0,0,-99.99,,,0.00,,2013-01-09 15:03:00,
2013-01-09 10:43:00,25.0,-99.9,30.19,ENE,67,2.0,8.0,0,-99.99,,,0.00,,2013-01-09 15:43:00,
2013-01-09 10:53:00,25.0,-99.9,30.19,ENE,67,2.0,8.0,0,-99.99,,,0.00,,2013-01-09 15:53:00,
2013-01-09 11:03:00,28.0,-99.9,30.15,South,180,6.0,11.0,0,-99.99,,,0.00,,2013-01-09 16:03:00,
2013-01-09 11:43:00,28.0,-99.9,30.15,South,180,6.0,11.0,0,-99.99,,,0.00,,2013-01-09 16:43:00,
2013-01-09 11:53:00,28.0,-99.9,30.15,South,180,6.0,11.0,0,-99.99,,,0.00,,2013-01-09 16:53:00,
2013-01-09 12:03:00,29.0,-99.9,30.07,SSE,157,7.0,16.0,0,-99.99,,,0.00,,2013-01-09 17:03:00,
2013-01-09 12:43:00,29.0,-99.9,30.07,SSE,157,7.0,16.0,0,-99.99,,,0.00,,2013-01-09 17:43:00,
2013-01-09 12:53:00,29.0,-99.9,30.07,SSE,157,7.0,16.0,0,-99.99,,,0.00,,2013-01-09 17:53:00,
2013-01-09 13:03:00,31.0,-99.9,30.04,SE,135,6.0,15.0,0,-99.99,,,0.00,,2013-01-09 18:03:00,
2013-01-09 13:33:00,31.0,-99.9,30.04,SE,135,6.0,15.0,0,-99.99,,,0.00,,2013-01-09 18:33:00,
2013-01-09 13:53:00,31.0,-99.9,30.04,SE,135,6.0,15.0,0,-99.99,,,0.00,,2013-01-09 18:53:00,
2013-01-09 15:03:00,30.0,-99.9,29.94,SSE,157,6.0,15.0,0,-99.99,,,0.00,,2013-01-09 20:03:00,
2013-01-09 15:43:00,30.0,-99.9,29.94,SSE,157,6.0,15.0,0,-99.99,,,0.00,,2013-01-09 20:43:00,
2013-01-09 15:53:00,30.0,-99.9,29.94,SSE,157,6.0,15.0,0,-99.99,,,0.00,,2013-01-09 20:53:00,
2013-01-09 16:03:00,30.0,-99.9,29.91,SW,225,4.0,10.0,0,-99.99,,,0.00,,2013-01-09 21:03:00,
2013-01-09 16:43:00,30.0,-99.9,29.91,SW,225,4.0,10.0,0,-99.99,,,0.00,,2013-01-09 21:43:00,
2013-01-09 16:53:00,30.0,-99.9,29.91,SW,225,4.0,10.0,0,-99.99,,,0.00,,2013-01-09 21:53:00,
2013-01-09 17:03:00,30.0,-99.9,29.83,SW,225,6.0,12.0,0,-99.99,,,0.00,,2013-01-09 22:03:00,
2013-01-09 17:43:00,30.0,-99.9,29.83,SW,225,6.0,12.0,0,-99.99,,,0.00,,2013-01-09 22:43:00,
2013-01-09 17:53:00,30.0,-99.9,29.83,SW,225,6.0,12.0,0,-99.99,,,0.00,,2013-01-09 22:53:00,
2013-01-09 18:03:00,31.0,-99.9,29.80,SW,225,5.0,12.0,0,-99.99,,,0.00,,2013-01-09 23:03:00,
2013-01-09 18:43:00,31.0,-99.9,29.80,SW,225,5.0,12.0,0,-99.99,,,0.00,,2013-01-09 23:43:00,
2013-01-09 18:53:00,31.0,-99.9,29.80,SW,225,5.0,12.0,0,-99.99,,,0.00,,2013-01-09 23:53:00,
2013-01-09 19:03:00,29.0,-99.9,29.75,SSW,202,4.0,16.0,0,-99.99,,,0.00,,2013-01-10 00:03:00,
2013-01-09 19:43:00,29.0,-99.9,29.75,SSW,202,4.0,16.0,0,-99.99,,,0.00,,2013-01-10 00:43:00,
2013-01-09 19:53:00,29.0,-99.9,29.75,SSW,202,4.0,16.0,0,-99.99,,,0.00,,2013-01-10 00:53:00,